Baudette, MN

7:45 AM CST on February 08, 2016 (GMT -0600)
Baudette International

Weather History for KBDE - April, 2013

Change the Weather History Date:

Tuesday, April 9, 2013

  Actual Average Record
Temperature  
Mean Temperature 21 °F -  
Max Temperature 32 °F 48 °F 75 °F (1987)
Min Temperature 10 °F 24 °F 1 °F (1948)
Degree Days  
Heating Degree Days 44    
Moisture  
Dew Point 10 °F    
Average Humidity 64    
Maximum Humidity 85    
Minimum Humidity 43    
Precipitation  
Precipitation 0.00 in - - ()
Sea Level Pressure  
Sea Level Pressure 30.34 in    
Wind  
Wind Speed 13 mph (NNW)    
Max Wind Speed 18 mph    
Max Gust Speed -    
Visibility 10 miles    
Events Snow    
Averages and records for this station are not official NWS values.
T = Trace of Precipitation, MM = Missing Value Source: NWS Daily Summary

Daily Weather History Graph

Daily Weather History Graph

Search for Another Location

Airport or City:

Trip Planner

Search our weather history database for the weather conditions in past years. The results will help you decide how hot, cold, wet, or windy it might be!

Date:

Astronomy

Apr. 09, 2013 Rise Set
Actual Time 6:39 AM CDT 8:01 PM CDT
Civil Twilight 6:06 AM CDT 8:34 PM CDT
Nautical Twilight 5:27 AM CDT 9:13 PM CDT
Astronomical Twilight 4:44 AM CDT 9:56 PM CDT
Moon 6:04 AM CDT (4/9) 7:38 PM CDT (4/9)
Length of Visible Light 14h 27m
Length of Day
13h 22m
Waning Crescent, 1% of the Moon is Illuminated
Apr 9
Waning Crescent
Apr 10
New
Apr 18
First Quarter
Apr 25
Full
May 2
Last Quarter

Hourly Weather History & Observations

Time (CDT) Temp. Windchill Dew Point Humidity Pressure Visibility Wind Dir Wind Speed Gust Speed Precip Events Conditions
12:53 AM 17.1 °F 1.0 °F 9.0 °F 71% 30.26 in 10.0 mi NW 18.4 mph - N/A   Clear
1:53 AM 15.1 °F -0.1 °F 7.0 °F 70% 30.27 in 10.0 mi NW 15.0 mph - N/A   Clear
2:53 AM 14.0 °F -0.2 °F 6.1 °F 71% 30.27 in 10.0 mi NW 12.7 mph - N/A   Clear
3:53 AM 12.9 °F -1.6 °F 6.1 °F 74% 30.29 in 10.0 mi NW 12.7 mph - N/A   Clear
4:53 AM 12.0 °F -1.3 °F 5.0 °F 73% 30.30 in 10.0 mi NW 10.4 mph - N/A   Partly Cloudy
5:53 AM 12.0 °F -2.7 °F 7.0 °F 80% 30.31 in 9.0 mi NNW 12.7 mph - 0.00 in Snow Light Snow
6:22 AM 10.4 °F -4.8 °F 6.8 °F 85% 30.25 in 10.0 mi NNW 12.7 mph - 0.00 in   Partly Cloudy
6:53 AM 10.9 °F -2.6 °F 6.1 °F 81% 30.33 in 10.0 mi NNW 10.4 mph - 0.00 in   Clear
7:53 AM 10.9 °F -2.6 °F 6.1 °F 81% 30.36 in 10.0 mi NW 10.4 mph - N/A   Clear
8:53 AM 14.0 °F -0.2 °F 7.0 °F 74% 30.37 in 10.0 mi NW 12.7 mph - N/A   Clear
9:53 AM 17.1 °F 5.8 °F 8.1 °F 68% 30.37 in 10.0 mi North 9.2 mph - N/A   Clear
10:53 AM 21.0 °F 9.9 °F 12.0 °F 68% 30.37 in 10.0 mi NNW 10.4 mph - N/A   Clear
11:53 AM 25.0 °F 13.6 °F 14.0 °F 63% 30.38 in 10.0 mi North 12.7 mph - N/A   Clear
12:53 PM 27.0 °F 16.1 °F 17.1 °F 66% 30.37 in 10.0 mi NNW 12.7 mph - N/A   Clear
1:53 PM 28.9 °F 16.9 °F 16.0 °F 58% 30.36 in 10.0 mi NW 17.3 mph - N/A   Clear
2:53 PM 30.0 °F 18.7 °F 14.0 °F 51% 30.37 in 10.0 mi NNW 16.1 mph - N/A   Clear
3:53 PM 30.9 °F 21.2 °F 14.0 °F 50% 30.36 in 10.0 mi NW 12.7 mph - N/A   Clear
4:53 PM 32.0 °F 23.6 °F 12.9 °F 45% 30.34 in 10.0 mi North 10.4 mph - N/A   Clear
5:53 PM 32.0 °F 23.0 °F 12.9 °F 45% 30.36 in 10.0 mi NNW 11.5 mph - N/A   Clear
6:53 PM 30.9 °F 21.2 °F 10.9 °F 43% 30.36 in 10.0 mi NNW 12.7 mph - N/A   Clear
7:53 PM 28.0 °F 21.7 °F 12.0 °F 51% 30.34 in 10.0 mi NNW 5.8 mph - N/A   Clear
8:53 PM 27.0 °F 19.5 °F 12.0 °F 53% 30.34 in 10.0 mi NNW 6.9 mph - N/A   Clear
9:53 PM 26.1 °F 18.4 °F 10.9 °F 53% 30.35 in 10.0 mi NNW 6.9 mph - N/A   Clear
10:53 PM 24.1 °F 17.0 °F 12.0 °F 60% 30.35 in 10.0 mi NNW 5.8 mph - N/A   Clear
11:53 PM 23.0 °F 13.1 °F 12.0 °F 63% 30.35 in 10.0 mi NNW 9.2 mph - N/A   Clear